Weather in Tortoli

Italy     39˚55′35″N   9˚39′23″E
temp.,
°C
wind,
m/s
gust,
m/s
humid.,
%
clouds,
%
prec.,
mm/h
press.,
hPa
HPBL,
m
15 january, fri
fri1501:00+10˚sw257089 0.0 1012437
04:00+11˚wnw41069100 0.0 1011840
07:00+11˚w4126785 0.0 10101261
10:00+13˚w616572 0.0 10111534
13:00+11˚nw9147617 0.6 10101328
16:00+11˚nnw81276100 0.9 10111085
19:00+10˚nnw587792 1.0 1012610
22:00+9˚nw347436 0.0 1014324
16 january, sat
sat1601:00+9˚n458150 0.2 1014446
04:00+9˚n4579100 0.6 1014615
07:00+9˚n567497 1.1 1015566
10:00+9˚n69662 0.0 1017990
13:00+10˚n79611 0.0 10181125
16:00+10˚nne66600 0.0 1019780
19:00+8˚n34630 0.0 1020417
22:00+6˚w22660 0.0 1021114
17 january, sun
sun1701:00+6˚w22660 0.0 102197
04:00+6˚w11655 0.0 101990
07:00+7˚sw457013 0.0 1018383
10:00+9˚sw31074100 0.1 1017725
13:00+14˚nw5146384 0.1 10161782
16:00+13˚wnw5135921 0.0 10151459
19:00+10˚nw596011 0.0 1016507
22:00+8˚nw25620 0.0 1017622
18 january, mon
mon1801:00+7˚wnw22684 0.0 1018124
04:00+7˚wnw33700 0.0 1017227
07:00+7˚nw45695 0.0 1018363
10:00+9˚wnw347573 0.3 1020198
13:00+12˚nne335967 0.3 1021981
16:00+11˚nne44704 0.1 1021847
19:00+10˚nne227040 0.1 1024544
22:00+8˚w117446 0.0 1025177
19 january, tue
tue1901:00+8˚w118043 0.0 1026104
04:00+7˚w227917 0.0 1026100
07:00+7˚w22798 0.0 102691
10:00+10˚sw12680 0.0 1027232
13:00+12˚sse446412 0.0 1027898
16:00+12˚s566841 0.1 1027800
19:00+9˚ssw357820 0.1 1028376
22:00+8˚sw34750 0.0 1028292